Location: Caltech
(34.1382°N, 118.1253°W)
Time: 00:50:30
(UTC-07:00)

Iridium 62 - Visible Passes

Search period start: 29 July 2016 00:00
Search period end: 08 August 2016 00:00
Orbit: 776 x 779 km, 86.4° (Epoch: 28 July)

Date Brightness Start Highest point End Pass type
(mag) Time Alt. Az. Time Alt. Az. Time Alt. Az.
29 Jul 6.0 04:14:35 18° S 04:18:32 74° E 04:23:44 10° N visible
30 Jul 7.1 03:41:40 17° SE 03:45:08 37° E 03:49:54 10° NNE visible
30 Jul 7.2 05:22:10 10° SW 05:25:55 20° W 05:29:42 10° NNW visible
31 Jul 8.1 03:08:43 12° ESE 03:11:51 20° E 03:15:30 10° NE visible
31 Jul 6.4 04:49:12 20° SW 04:52:13 38° W 04:57:03 10° NNW visible
01 Aug 5.7 04:16:13 33° SSW 04:18:38 75° W 04:23:51 10° N visible
02 Aug 6.3 03:43:13 35° SSE 03:45:09 56° E 03:50:16 10° NNE visible
02 Aug 7.6 05:23:46 10° WSW 05:26:12 13° WNW 05:28:40 10° NW visible
03 Aug 7.4 03:10:11 24° ESE 03:11:48 29° E 03:16:14 10° NNE visible
03 Aug 6.9 04:50:40 21° WSW 04:52:25 26° W 04:56:44 10° NNW visible
04 Aug 8.2 02:37:09 14° E 02:38:34 15° E 02:41:26 10° NE visible
04 Aug 6.0 04:17:38 42° WSW 04:18:46 49° W 04:23:50 10° N visible
05 Aug 5.7 03:44:34 68° SSE 03:45:14 84° E 03:50:28 10° N visible
06 Aug 6.7 03:11:29 42° E 03:11:49 43° E 03:16:43 10° NNE visible
06 Aug 7.3 04:51:59 17° W 04:52:41 17° WNW 04:56:06 10° NW visible
07 Aug 7.7 02:38:23 22° E 02:38:30 22° E 02:42:28 10° NNE visible
07 Aug 6.6 04:18:53 33° W 04:18:57 33° W 04:23:38 10° NNW visible
